Location: Chicoutimi
(48.4330°N, 71.0670°W)
Time: 01:55:04
(UTC-04:00)

ISS - Visible Passes

Search period start: 23 October 2014 00:00
Search period end: 02 November 2014 00:00
Orbit: 413 x 416 km, 51.6° (Epoch: 22 October)

Date Brightness Start Highest point End Pass type
(mag) Time Alt. Az. Time Alt. Az. Time Alt. Az.
23 Oct -3.0 18:52:26 10° WNW 18:55:46 64° SSW 18:58:03 18° SE visible
23 Oct -0.1 20:30:19 10° WSW 20:30:55 12° WSW 20:30:55 12° WSW visible
24 Oct -1.1 19:40:28 10° W 19:43:00 20° SW 19:44:05 17° SSW visible
25 Oct -1.6 18:50:59 10° W 18:53:59 31° SW 18:56:58 10° SSE visible
26 Oct -2.2 18:01:38 10° WNW 18:04:52 47° SSW 18:08:05 10° SE visible
27 Oct -0.3 18:49:57 10° W 18:51:52 15° SW 18:53:47 10° S visible
28 Oct -0.7 18:00:05 10° W 18:02:46 23° SW 18:05:27 10° SSE visible
